Weather Roundup
Issued by NWS Springfield, MO

Home | Current Version | Previous Version | Text Only | Print | Product List | Glossary On
Versions: 1 2 3 4 5 6 7 8 9 10 11 12 13 14 15 16 17 18 19 20 21 22 23 24 25 26 27 28 29 30 31 32 33 34 35 36 37 38 39 40 41 42 43 44 45 46 47 48 49 50
000
NZUS99 KSGF 271307
HRRSGF

HOURLY WEATHER
NATIONAL WEATHER SERVICE SPRINGFIELD MO
800 AM CDT TUE SEP 27 2016

......SGF CWA......

CITY           SKY/WX    TMP DP  RH WIND       PRES   REMARKS
SPRINGFIELD    CLEAR     51  44  77 CALM      30.11R
JOPLIN         CLEAR     51  48  89 SW6       30.13S
WEST PLAINS    SUNNY     54  45  71 W3        30.11S
ROLLA          SUNNY     51  45  79 SW7       30.07R
OSAGE BEACH    SUNNY     50  48  93 SW5       30.09S
BRANSON        MOSUNNY   52  45  76 CALM      30.13R

......SURROUNDING SGF CWA......

CITY           SKY/WX    TMP DP  RH WIND       PRES   REMARKS
CHANUTE        CLEAR     53  47  79 SW6       30.11R
PARSONS        CLEAR     47  46  97 CALM      30.13S
COFFEYVILLE    CLEAR     50  49  96 CALM      30.13R
EMPORIA        CLEAR     57  45  64 SW7       30.08S
GROVE OK       CLEAR     46  46 100 CALM      30.15R
ROGERS AR      CLEAR     50  48  93 CALM      30.15R
SILOAM SPRINGS CLEAR     46  37  71 CALM      30.15R
HARRISON AR    SUNNY     52  43  71 W3        30.13R
NEAR YELLVILLE SUNNY     48  45  87 CALM      30.10R

......KANSAS AND MISSOURI......

CITY           SKY/WX    TMP DP  RH WIND       PRES   REMARKS
KANSAS CTY INT PTCLDY    53  46  77 SW7       30.05S
DOWNTOWN KC    CLEAR     57  47  69 SW7       30.05S
COLUMBIA       SUNNY     56  46  69 W10       30.05S
SEDALIA        CLEAR     56  45  66 SW10      30.07S
ST JOSEPH      CLEAR     51  49  92 CALM      30.04S
ST LOUIS       SUNNY     59  44  57 W9        30.02F
SPIRIT OF STL  SUNNY     56  47  71 SW9       30.02S
KIRKSVILLE     CLEAR     52  46  80 W6        30.01S
WICHITA        CLEAR     52  48  86 S7        30.10F
TOPEKA         CLEAR     52  48  86 CALM      30.06S
OLATHE         CLEAR     53  46  77 SW6       30.07S

......TENNESSEE......

CITY           SKY/WX    TMP DP  RH WIND       PRES   REMARKS
MEMPHIS        MOSUNNY   63  56  78 NE5       30.06S
NASHVILLE      MOSUNNY   59  54  83 CALM      30.06S

......ARKANSAS.......

CITY           SKY/WX    TMP DP  RH WIND       PRES   REMARKS
FAYETTEVILLE   CLEAR     45  45 100 CALM      30.15R
FT SMITH       PTCLDY    54  50  86 CALM      30.13R
LITTLE ROCK    CLOUDY    62  51  67 NW6       30.10S

......OKLAHOMA.......

CITY           SKY/WX    TMP DP  RH WIND       PRES   REMARKS
TULSA          PTCLDY    53  50  89 CALM      30.13R
PONCA CITY     CLEAR     49  47  93 S3        30.13S
MCALESTER      CLEAR     48  46  93 CALM      30.14S
OKLAHOMA CITY  PTCLDY    51  48  89 CALM      30.16R

......IOWA............

CITY           SKY/WX    TMP DP  RH WIND       PRES   REMARKS
DES MOINES     PTCLDY    52  44  74 W5        29.99S
QUAD CITIES    SUNNY     52  44  74 W7        29.92S

......ILLINOIS........

CITY           SKY/WX    TMP DP  RH WIND       PRES   REMARKS
QUINCY         SUNNY     53  48  83 SW8       29.98S
CHICAGO        MOSUNNY   53  40  61 W12       29.83F




USA.gov is the U.S. government's official web portal to all federal, state and local government web resources and services.